Grand Island, NE

6:29 AM CDT on May 23, 2017 (GMT -0500)
Central Nebraska Regional

Weather History for KGRI - February, 2015

Change the Weather History Date:

Friday, February 27, 2015

  Actual Average Record
Temperature  
Mean Temperature 9 °F 33 °F  
Max Temperature 22 °F 44 °F 76 °F (2016)
Min Temperature -5 °F 22 °F -7 °F (1962)
Degree Days  
Heating Degree Days 56 32  
Month to date heating degree days 1096 974  
Since 1 July heating degree days 4688 4730  
Cooling Degree Days 0 0  
Month to date cooling degree days 0 0  
Year to date cooling degree days 0 0  
Moisture  
Dew Point -3 °F    
Average Humidity 59    
Maximum Humidity 82    
Minimum Humidity 36    
Precipitation  
Precipitation 0.00 in 0.03 in 1.05 in (1903)
Month to date precipitation 0.70 0.65  
Year to date precipitation 1.17 1.18  
Snow  
Snow 0.00 in 0.20 in 10.50 in (1903)
Month to date snowfall 11.1 6.1  
Since 1 July snowfall 22.9 21.9  
Snow Depth 0.00 in    
Sea Level Pressure  
Sea Level Pressure 30.61 in    
Wind  
Wind Speed 6 mph (SSW)    
Max Wind Speed 15 mph    
Max Gust Speed 20 mph    
Visibility 10 miles    
Events      
T = Trace of Precipitation, MM = Missing Value Source: NWS Daily Summary

Daily Weather History Graph

Daily Weather History Graph

Search for Another Location

Airport or City:

Trip Planner

Search our weather history database for the weather conditions in past years. The results will help you decide how hot, cold, wet, or windy it might be!

Date:

Astronomy

Feb. 27, 2015 Rise Set
Actual Time 7:10 AM CST 6:21 PM CST
Civil Twilight 6:43 AM CST 6:49 PM CST
Nautical Twilight 6:11 AM CST 7:21 PM CST
Astronomical Twilight 5:39 AM CST 7:53 PM CST
Moon 1:11 PM CST (2/27) 3:03 AM CST (2/27)
Length of Visible Light 12h 06m
Length of Day
11h 11m
Waxing Gibbous, 70% of the Moon is Illuminated
Feb 27
Waxing Gibbous
Mar 5
Full
Mar 13
Last Quarter
Mar 20
New
Mar 27
First Quarter

Hourly Weather History & Observations

Time (CST) Temp. Windchill Dew Point Humidity Pressure Visibility Wind Dir Wind Speed Gust Speed Precip Events Conditions
12:53 AM -0.0 °F -7.9 °F -6.0 °F 76% 30.68 in 10.0 mi WNW 3.5 mph - N/A   Clear
1:53 AM 1.0 °F -8.7 °F -5.1 °F 75% 30.69 in 10.0 mi WNW 4.6 mph - N/A   Clear
2:53 AM -0.9 °F -8.9 °F -7.1 °F 75% 30.68 in 10.0 mi NNW 3.5 mph - N/A   Clear
3:53 AM -2.9 °F -11.2 °F -8.0 °F 79% 30.66 in 10.0 mi NNW 3.5 mph - N/A   Clear
4:53 AM -2.0 °F - -9.0 °F 72% 30.66 in 10.0 mi Calm Calm - N/A   Clear
5:53 AM -2.0 °F - -8.0 °F 76% 30.67 in 10.0 mi Calm Calm - N/A   Clear
6:53 AM -5.1 °F -15.8 °F -9.9 °F 80% 30.69 in 10.0 mi WSW 4.6 mph - N/A   Clear
7:53 AM 1.0 °F - -6.0 °F 72% 30.69 in 10.0 mi Calm Calm - N/A   Clear
8:53 AM 5.0 °F -4.1 °F -2.0 °F 73% 30.70 in 10.0 mi SSW 4.6 mph - N/A   Clear
9:53 AM 9.0 °F - -0.0 °F 67% 30.68 in 10.0 mi Calm Calm - N/A   Clear
10:53 AM 14.0 °F 8.2 °F -2.0 °F 49% 30.67 in 10.0 mi Variable 3.5 mph - N/A   Clear
11:53 AM 15.1 °F - -0.9 °F 49% 30.66 in 10.0 mi Calm Calm - N/A   Clear
12:53 PM 18.0 °F 11.1 °F -2.0 °F 41% 30.62 in 10.0 mi Variable 4.6 mph - N/A   Clear
1:53 PM 19.9 °F 14.9 °F -2.0 °F 38% 30.57 in 10.0 mi Variable 3.5 mph - N/A   Clear
2:53 PM 21.9 °F 11.7 °F -2.9 °F 34% 30.54 in 10.0 mi South 9.2 mph - N/A   Partly Cloudy
3:53 PM 21.9 °F 11.7 °F -2.9 °F 34% 30.54 in 10.0 mi South 9.2 mph - N/A   Clear
4:53 PM 21.9 °F 9.8 °F -2.9 °F 34% 30.53 in 10.0 mi South 12.7 mph - N/A   Clear
5:53 PM 19.9 °F 9.3 °F -2.0 °F 38% 30.53 in 10.0 mi SSE 9.2 mph - N/A   Clear
6:53 PM 17.1 °F 5.0 °F -2.0 °F 43% 30.54 in 10.0 mi SSE 10.4 mph - N/A   Partly Cloudy
7:53 PM 15.1 °F 1.8 °F -0.9 °F 49% 30.54 in 10.0 mi South 11.5 mph - N/A   Clear
8:53 PM 14.0 °F 1.2 °F -0.0 °F 54% 30.54 in 10.0 mi South 10.4 mph - N/A   Mostly Cloudy
9:53 PM 12.0 °F -0.4 °F -0.0 °F 59% 30.54 in 10.0 mi South 9.2 mph - N/A   Clear
10:53 PM 12.0 °F -0.4 °F 1.0 °F 61% 30.53 in 10.0 mi South 9.2 mph - N/A   Partly Cloudy
11:53 PM 12.0 °F -0.4 °F 1.9 °F 64% 30.51 in 10.0 mi South 9.2 mph - N/A   Scattered Clouds